GPS BIIRM-6 (PRN 07)

Last updated on Wed Oct 22 2025 00:03:16 GMT+0000 (Coordinated Universal Time)

1 32711U 08012A 25293.82497488 .00000059 00000+0 00000+0 0 9998 2 32711 54.4689 159.4860 0200947 244.4646 113.5429 2.00563257128957
UTC large
Height (km)
Speed (km/s)
/
Latitude / Longitude
Inclination (degrees)
Orbital Period (minutes)
Azimuth
Elevation
Range (km)
Doppler Factor

Next 0 passes for location: London (51.5072 / 0.1276)

Sorry there are no passes over London.